Location: Chemnitz
(49.5500°N, 11.5830°E)
Time: 10:45:44
(UTC+01:00)

ISS - Pass Details

Date: 12 January 2018
Orbit: 402 x 406 km, 51.6° (Epoch: 16 January)

Event Time Altitude Azimuth Distance (km) Brightness Sun altitude
Exits shadow 04:52:11 12° 95° (E) 1,329 -0.4 -30.7°
Drops below altitude 10° 04:52:31 10° 96° (E) 1,464 -0.1 -30.7°
Sets 04:54:37 0° 99° (E) 2,324 1.2 -30.3°
